Reno - Stead, NV

3:07 PM PDT on August 23, 2017 (GMT -0700)
Reno - Stead

Weather History for KRTS - March, 2013

Change the Weather History Date:

Thursday, March 7, 2013

  Actual Average (KRNO) Record (KRNO)
Temperature  
Mean Temperature 28 °F -  
Max Temperature 35 °F 57 °F 72 °F (1940)
Min Temperature 23 °F 29 °F 4 °F (1998)
Degree Days  
Heating Degree Days 37    
Moisture  
Dew Point 20 °F    
Average Humidity 73    
Maximum Humidity 86    
Minimum Humidity 52    
Precipitation  
Precipitation 0.00 in - - ()
Sea Level Pressure  
Sea Level Pressure 29.93 in    
Wind  
Wind Speed 4 mph (NE)    
Max Wind Speed 13 mph    
Max Gust Speed 16 mph    
Visibility 10 miles    
Events      
Averages and records for this station are not official NWS values.
T = Trace of Precipitation, MM = Missing Value Source: NWS Daily Summary

Daily Weather History Graph

Daily Weather History Graph

Search for Another Location

Airport or City:

Trip Planner

Search our weather history database for the weather conditions in past years. The results will help you decide how hot, cold, wet, or windy it might be!

Date:

Astronomy

Mar. 07, 2013 Rise Set
Actual Time 6:22 AM PST 5:58 PM PST
Civil Twilight 5:56 AM PST 6:25 PM PST
Nautical Twilight 5:24 AM PST 6:56 PM PST
Astronomical Twilight 4:53 AM PST 7:28 PM PST
Moon 3:26 AM PST (3/7) 1:52 PM PST (3/7)
Length of Visible Light 12h 29m
Length of Day
11h 35m
Waning Crescent, 19% of the Moon is Illuminated
Mar 7
Waning Crescent
Mar 11
New
Mar 19
First Quarter
Mar 27
Full
Apr 2
Last Quarter

Hourly Weather History & Observations

Time (PST) Temp. Windchill Dew Point Humidity Pressure Visibility Wind Dir Wind Speed Gust Speed Precip Events Conditions
12:10 AM 28.4 °F 21.2 °F 17.6 °F 64% 29.95 in 10.0 mi NE 6.9 mph - N/A   Clear
12:30 AM 28.4 °F 24.6 °F 19.4 °F 69% 29.94 in 10.0 mi NNW 3.5 mph - N/A   Clear
12:50 AM 23.0 °F 15.8 °F 15.8 °F 74% 29.95 in 10.0 mi NNW 5.8 mph - N/A   Mostly Cloudy
1:10 AM 24.8 °F 20.5 °F 17.6 °F 74% 29.95 in 10.0 mi South 3.5 mph - N/A   Overcast
1:30 AM 26.6 °F - 17.6 °F 69% 29.95 in 10.0 mi Calm Calm - N/A   Overcast
1:50 AM 26.6 °F - 17.6 °F 69% 29.95 in 10.0 mi Calm Calm - N/A   Overcast
2:10 AM 26.6 °F - 17.6 °F 69% 29.94 in 10.0 mi Calm Calm - N/A   Overcast
2:30 AM 24.8 °F 19.1 °F 17.6 °F 74% 29.94 in 10.0 mi North 4.6 mph - N/A   Overcast
2:50 AM 24.8 °F 20.5 °F 17.6 °F 74% 29.93 in 10.0 mi North 3.5 mph - N/A   Overcast
3:10 AM 24.8 °F - 19.4 °F 80% 29.93 in 10.0 mi Calm Calm - N/A   Overcast
3:30 AM 24.8 °F 19.1 °F 17.6 °F 74% 29.93 in 10.0 mi North 4.6 mph - N/A   Mostly Cloudy
3:50 AM 26.6 °F 20.0 °F 19.4 °F 74% 29.92 in 10.0 mi North 5.8 mph - N/A   Overcast
4:10 AM 26.6 °F 22.6 °F 19.4 °F 74% 29.93 in 10.0 mi NNW 3.5 mph - N/A   Overcast
4:30 AM 24.8 °F - 19.4 °F 80% 29.93 in 10.0 mi Calm Calm - N/A   Overcast
4:50 AM 24.8 °F - 19.4 °F 80% 29.93 in 10.0 mi Calm Calm - N/A   Overcast
5:10 AM 26.6 °F - 19.4 °F 74% 29.93 in 10.0 mi Calm Calm - N/A   Overcast
5:30 AM 26.6 °F 21.2 °F 21.2 °F 80% 29.93 in 10.0 mi WNW 4.6 mph - N/A   Overcast
5:50 AM 26.6 °F 22.6 °F 21.2 °F 80% 29.93 in 10.0 mi NW 3.5 mph - N/A   Overcast
6:10 AM 26.6 °F - 23.0 °F 86% 29.93 in 10.0 mi Calm Calm - N/A   Overcast
6:30 AM 28.4 °F - 23.0 °F 80% 29.93 in 10.0 mi Calm Calm - N/A   Overcast
6:50 AM 26.6 °F - 23.0 °F 86% 29.92 in 10.0 mi Calm Calm - N/A   Overcast
7:10 AM 28.4 °F - 23.0 °F 80% 29.93 in 10.0 mi Calm Calm - N/A   Overcast
7:30 AM 28.4 °F 23.3 °F 21.2 °F 74% 29.93 in 10.0 mi East 4.6 mph - N/A   Mostly Cloudy
7:50 AM 28.4 °F - 21.2 °F 74% 29.93 in 10.0 mi Calm Calm - N/A   Mostly Cloudy
8:10 AM 30.2 °F - 23.0 °F 75% 29.93 in 10.0 mi Calm Calm - N/A   Mostly Cloudy
8:30 AM 32.0 °F 28.7 °F 21.2 °F 64% 29.93 in 10.0 mi SSE 3.5 mph - N/A   Mostly Cloudy
8:50 AM 32.0 °F 28.7 °F 23.0 °F 69% 29.94 in 10.0 mi ESE 3.5 mph - N/A   Mostly Cloudy
9:10 AM 32.0 °F 26.4 °F 23.0 °F 69% 29.94 in 10.0 mi SE 5.8 mph - N/A   Partly Cloudy
9:30 AM 32.0 °F 24.2 °F 19.4 °F 60% 29.93 in 10.0 mi SSE 9.2 mph - N/A   Scattered Clouds
9:50 AM 33.8 °F 24.8 °F 19.4 °F 56% 29.93 in 10.0 mi SSE 12.7 mph 16.1 mph N/A   Scattered Clouds
10:10 AM 35.6 °F 28.0 °F 19.4 °F 52% 29.93 in 10.0 mi ESE 10.4 mph - N/A   Mostly Cloudy